FW6909 Weather Reports


time (UTC)temp
F
wind
direction
speed
knots
gust
knots
rain 1hr
in
rain 24hr
in
rain mn
in
humidity
%
barometer
mb
20260508013531 48 0 0.0 1.7 0.00 0.09 0.07 85 1011.9
20260508013035 48 0 0.0 1.7 0.00 0.09 0.07 85 1011.9
20260508012530 48 0 0.0 0.9 0.00 0.09 0.07 85 1011.9
20260508012032 48 0 0.0 0.9 0.00 0.09 0.07 85 1011.9
20260508011538 48 328 0.0 0.9 0.00 0.09 0.07 85 1011.8
20260508011027 48 2 0.0 0.9 0.00 0.09 0.07 85 1011.9
20260508010527 48 304 0.0 1.7 0.00 0.09 0.07 85 1011.9
20260508010039 48 334 0.0 1.7 0.00 0.09 0.07 84 1011.8
20260508005527 48 0 0.0 1.7 0.01 0.09 0.07 84 1011.8
20260508005027 48 160 0.0 1.7 0.01 0.09 0.07 84 1011.8
20260508004536 48 354 0.0 1.7 0.02 0.09 0.07 84 1011.7
20260508004030 48 0 0.0 1.7 0.02 0.09 0.07 84 1011.8
20260508003533 48 0 0.0 2.6 0.03 0.09 0.07 84 1011.8
20260508003041 48 140 0.0 2.6 0.04 0.09 0.07 83 1011.7
20260508002527 47 91 0.0 2.6 0.07 0.09 0.07 83 1011.9
20260508002027 48 0 0.0 1.7 0.07 0.09 0.07 83 1011.9
20260508001542 48 0 0.0 0.9 0.07 0.09 0.07 83 1011.9
20260508001031 48 49 0.0 0.9 0.07 0.09 0.07 82 1012.0
20260508000527 48 0 0.0 0.9 0.07 0.08 0.07 82 1012.0
20260508000041 48 0 0.0 0.9 0.06 0.07 0.06 82 1012.1
20260507235527 48 0 0.0 0.9 0.06 0.07 0.06 81 1012.0
20260507235027 48 0 0.0 1.7 0.06 0.07 0.06 81 1011.9
20260507234537 49 269 0.0 1.7 0.05 0.07 0.05 81 1012.0
20260507234027 49 278 0.9 3.5 0.05 0.07 0.05 80 1011.9
20260507233531 49 250 0.0 3.5 0.03 0.05 0.03 79 1011.9
20260507233043 50 286 0.9 3.5 0.02 0.03 0.02 78 1011.8
20260507232529 50 293 0.9 4.3 0.00 0.01 0.00 77 1011.7
20260507232027 50 338 0.9 4.3 0.00 0.01 0.00 76 1011.7
20260507231538 50 0 0.0 1.7 0.00 0.01 0.00 76 1011.5
20260507231031 50 256 0.0 2.6 0.00 0.01 0.00 76 1011.5
20260507230531 50 266 0.0 3.5 0.00 0.01 0.00 75 1011.5
20260507230049 50 87 0.0 3.5 0.00 0.01 0.00 75 1011.7
20260507225531 50 221 0.0 3.5 0.00 0.01 0.01 75 1011.6
20260507225031 50 303 0.0 3.5 0.00 0.01 0.01 75 1011.5
20260507224542 50 62 0.9 3.5 0.00 0.01 0.01 75 1011.6
20260507224032 50 250 0.0 3.5 0.00 0.01 0.01 75 1011.5
20260507223531 50 4 0.0 3.5 0.00 0.01 0.01 75 1011.6
20260507223041 50 94 0.9 3.5 0.00 0.01 0.01 75 1011.6
20260507222536 50 66 0.0 3.5 0.00 0.01 0.01 76 1011.6
20260507222031 50 250 0.9 3.5 0.00 0.01 0.01 76 1011.6
20260507221540 50 86 0.9 3.5 0.00 0.01 0.01 76 1011.4
20260507221031 50 0 0.9 3.5 0.00 0.01 0.01 76 1011.3
20260507220533 50 49 0.9 3.5 0.00 0.01 0.01 76 1011.3
20260507220037 50 148 0.9 3.5 0.00 0.01 0.01 76 1011.4
20260507215533 50 51 0.0 3.5 0.00 0.01 0.01 76 1011.3
20260507215031 50 272 0.0 3.5 0.00 0.01 0.01 76 1011.4
20260507214556 50 0 0.0 2.6 0.00 0.01 0.01 76 1011.5
20260507214031 50 0 0.0 2.6 0.00 0.01 0.01 75 1011.5
20260507213533 50 320 0.0 2.6 0.00 0.01 0.01 75 1011.5
20260507213044 50 0 0.0 2.6 0.00 0.01 0.01 75 1011.5
20260507212531 50 347 0.0 1.7 0.00 0.01 0.01 75 1011.6
20260507212032 50 72 0.0 1.7 0.00 0.01 0.01 74 1011.5
20260507211539 50 0 0.0 0.9 0.00 0.01 0.01 74 1011.6
20260507211030 51 0 0.0 0.9 0.00 0.01 0.01 74 1011.6
20260507210531 51 0 0.0 0.9 0.00 0.01 0.01 73 1011.6
20260507210036 51 72 0.0 0.9 0.00 0.01 0.01 73 1011.6
20260507205532 51 0 0.0 1.7 0.00 0.01 0.01 73 1011.7
20260507205032 51 73 0.0 2.6 0.00 0.01 0.01 73 1011.5
20260507204543 51 247 0.0 2.6 0.00 0.01 0.01 72 1011.6
20260507204033 51 211 0.9 2.6 0.00 0.01 0.01 72 1011.5
20260507203531 51 0 0.9 3.5 0.00 0.01 0.01 72 1011.5
20260507203101 52 0 0.0 3.5 0.00 0.01 0.01 71 1011.4
20260507202531 52 85 0.0 3.5 0.00 0.01 0.01 71 1011.4
20260507202031 52 9 0.0 3.5 0.00 0.01 0.01 70 1011.4
20260507201554 52 60 0.0 3.5 0.00 0.01 0.01 70 1011.3
20260507201031 52 51 0.0 5.2 0.00 0.01 0.01 70 1011.4
20260507200532 52 224 0.0 5.2 0.00 0.01 0.01 70 1011.2
20260507200103 52 123 0.0 5.2 0.00 0.01 0.01 70 1011.3
20260507195532 52 89 0.0 2.6 0.00 0.01 0.01 69 1011.3
20260507195036 52 75 0.0 2.6 0.00 0.01 0.01 69 1011.3
20260507194537 53 177 0.9 2.6 0.00 0.01 0.01 69 1011.3
20260507194032 53 0 0.0 3.5 0.00 0.01 0.01 68 1011.0
20260507193533 53 260 0.0 3.5 0.00 0.01 0.01 68 1011.1
20260507193044 53 142 0.0 2.6 0.00 0.01 0.01 68 1011.0
20260507192531 53 87 0.0 2.6 0.00 0.01 0.01 68 1010.9
20260507192039 53 0 0.0 1.7 0.00 0.01 0.01 68 1010.9
20260507191543 53 277 0.0 2.6 0.00 0.01 0.01 67 1010.9
20260507191031 54 94 0.0 2.6 0.00 0.01 0.01 67 1010.8
20260507190536 54 95 0.0 2.6 0.00 0.01 0.01 65 1010.8
20260507190042 54 0 0.0 4.3 0.00 0.01 0.01 64 1010.7
20260507185534 55 0 0.9 4.3 0.00 0.01 0.01 63 1010.8
20260507185031 56 317 0.0 3.5 0.00 0.01 0.01 61 1010.7
20260507184541 56 89 0.9 3.5 0.00 0.01 0.01 59 1010.8
20260507184031 57 77 0.0 2.6 0.00 0.01 0.01 58 1010.8
20260507183531 58 343 0.0 2.6 0.00 0.01 0.01 57 1010.9
20260507183046 58 228 0.9 2.6 0.00 0.01 0.01 58 1010.7
20260507182533 57 321 0.0 4.3 0.00 0.01 0.01 58 1010.7
20260507182031 57 359 0.9 4.3 0.00 0.01 0.01 59 1010.5
20260507181543 57 214 0.9 4.3 0.00 0.01 0.01 58 1010.6
20260507181032 57 212 0.9 2.6 0.00 0.01 0.01 59 1010.7
20260507180535 56 27 0.0 2.6 0.00 0.01 0.01 61 1010.8
20260507180038 56 100 0.0 3.5 0.00 0.01 0.01 61 1010.8
20260507175531 55 143 0.9 3.5 0.00 0.01 0.01 62 1010.8
20260507175031 55 333 0.9 3.5 0.00 0.01 0.01 62 1010.9
20260507174544 55 208 0.9 4.3 0.00 0.01 0.01 62 1010.8
20260507174034 55 236 0.0 4.3 0.00 0.01 0.01 63 1010.9
20260507173532 55 75 0.0 3.5 0.00 0.01 0.01 63 1010.8
20260507173040 55 288 0.9 3.5 0.00 0.01 0.01 62 1010.9
20260507172531 55 345 0.9 2.6 0.00 0.01 0.01 61 1010.8
20260507172030 55 295 0.9 2.6 0.00 0.01 0.01 60 1010.9
20260507171536 56 322 0.0 3.5 0.00 0.01 0.01 59 1010.9
20260507171031 56 276 0.0 3.5 0.00 0.01 0.01 59 1010.9
20260507170532 56 356 0.9 2.6 0.00 0.01 0.01 57 1010.9
20260507170043 56 224 0.9 5.2 0.00 0.01 0.01 58 1010.8
20260507165532 56 193 0.9 5.2 0.00 0.01 0.01 57 1010.9
20260507165031 56 147 0.9 5.2 0.00 0.01 0.01 57 1010.9
20260507164556 56 184 0.0 7.0 0.00 0.01 0.01 57 1011.0
20260507164032 57 46 0.9 7.0 0.00 0.01 0.01 56 1010.9
20260507163532 57 247 1.7 6.1 0.00 0.01 0.01 55 1011.0
20260507163041 58 200 0.9 6.1 0.00 0.01 0.01 56 1011.1
20260507162531 58 257 0.9 6.1 0.00 0.01 0.01 58 1011.0
20260507162031 58 281 2.6 7.8 0.00 0.01 0.01 57 1010.9
20260507161542 58 323 0.9 7.8 0.00 0.01 0.01 58 1010.9
20260507161031 58 210 0.9 6.1 0.00 0.01 0.01 59 1010.9
20260507160531 58 305 0.9 4.3 0.00 0.01 0.01 59 1010.9
20260507160036 58 231 0.9 8.7 0.00 0.01 0.01 58 1010.9
20260507155530 58 120 1.7 8.7 0.00 0.01 0.01 59 1010.8
20260507155031 58 279 2.6 8.7 0.00 0.01 0.01 58 1010.9
20260507154550 58 283 1.7 5.2 0.00 0.01 0.01 59 1010.9
20260507154031 58 354 1.7 5.2 0.00 0.01 0.01 60 1010.8
20260507153532 58 75 1.7 5.2 0.00 0.01 0.01 59 1010.9
20260507153042 58 143 1.7 5.2 0.00 0.01 0.01 59 1010.7
20260507152533 59 335 0.9 8.7 0.00 0.01 0.01 60 1011.0
20260507152032 58 309 1.7 8.7 0.00 0.01 0.01 60 1010.9
20260507151542 58 309 0.9 7.0 0.00 0.01 0.01 60 1010.9
20260507151031 58 1 0.0 5.2 0.00 0.01 0.01 61 1010.9
20260507150531 58 11 1.7 5.2 0.00 0.01 0.01 61 1010.8
20260507150047 58 42 0.9 6.1 0.00 0.01 0.01 61 1011.0
20260507145531 58 306 1.7 6.1 0.00 0.01 0.01 62 1011.0
20260507145035 58 217 0.9 3.5 0.00 0.01 0.01 62 1011.0
20260507144537 58 100 0.9 2.6 0.00 0.01 0.01 63 1011.1
20260507144032 58 108 0.9 2.6 0.00 0.01 0.01 63 1011.2
20260507143532 58 124 0.9 6.1 0.00 0.01 0.01 62 1011.0
20260507143042 58 1 0.9 6.1 0.00 0.01 0.01 63 1011.2
20260507142531 58 212 0.9 5.2 0.00 0.01 0.01 62 1011.2
20260507142032 58 281 1.7 5.2 0.00 0.01 0.01 62 1011.2
20260507141547 58 337 1.7 7.0 0.00 0.01 0.01 63 1011.1
20260507141035 57 148 1.7 10.4 0.00 0.01 0.01 63 1011.2
20260507140531 57 238 2.6 10.4 0.00 0.01 0.01 61 1011.2
20260507140038 57 273 2.6 9.6 0.00 0.01 0.01 62 1011.3
20260507135531 58 276 1.7 9.6 0.00 0.01 0.01 63 1011.2
20260507135032 58 276 2.6 9.6 0.00 0.01 0.01 63 1011.2
20260507134541 58 238 0.9 11.3 0.00 0.01 0.01 65 1011.3
20260507134030 57 350 2.6 11.3 0.00 0.01 0.01 65 1011.3
20260507133531 57 289 2.6 7.8 0.00 0.01 0.01 66 1011.4
20260507133059 57 281 2.6 7.8 0.00 0.01 0.01 67 1011.4
20260507132536 57 286 1.7 7.8 0.00 0.01 0.01 70 1011.5
20260507132031 56 251 1.7 5.2 0.00 0.01 0.01 73 1011.5
20260507131550 55 311 1.7 4.3 0.00 0.01 0.01 76 1011.5
20260507131034 55 309 0.9 3.5 0.00 0.01 0.01 78 1011.4
20260507130531 54 98 0.9 3.5 0.00 0.01 0.01 79 1011.5
20260507130056 54 325 0.9 5.2 0.00 0.01 0.01 79 1011.5
20260507125531 53 13 1.7 5.2 0.00 0.01 0.01 79 1011.5
20260507125031 53 71 2.6 5.2 0.00 0.01 0.01 79 1011.4
20260507124537 53 79 1.7 4.3 0.00 0.01 0.01 79 1011.6
20260507124031 53 69 0.0 3.5 0.00 0.01 0.01 80 1011.6
20260507123531 52 60 0.9 3.5 0.00 0.01 0.01 79 1011.7
20260507123036 52 211 0.9 3.5 0.00 0.01 0.01 80 1011.7
20260507122532 52 51 0.9 2.6 0.00 0.01 0.01 80 1011.6
20260507122034 52 86 0.9 2.6 0.00 0.01 0.01 80 1011.7
20260507121545 51 65 0.0 3.5 0.00 0.01 0.01 80 1011.7
20260507121035 51 20 0.0 3.5 0.00 0.01 0.01 79 1011.8
20260507120531 52 216 0.9 6.1 0.00 0.01 0.01 78 1011.8
20260507120053 52 91 0.9 6.1 0.00 0.00 0.00 78 1011.8
20260507115531 52 223 0.9 6.1 0.00 0.00 0.00 79 1011.8
20260507115033 52 0 0.0 4.3 0.00 0.00 0.00 79 1011.7
20260507114603 52 269 0.0 1.7 0.00 0.00 0.00 78 1011.9
20260507114034 52 314 0.0 2.6 0.00 0.00 0.00 78 1011.8
20260507113532 52 185 0.0 4.3 0.00 0.00 0.00 77 1011.7
20260507113036 52 306 0.9 4.3 0.00 0.00 0.00 77 1011.8
20260507112531 53 46 0.9 5.2 0.00 0.00 0.00 76 1011.6
20260507112031 53 325 0.0 5.2 0.00 0.00 0.00 76 1011.7
20260507111544 53 289 1.7 5.2 0.00 0.00 0.00 75 1011.6
20260507111031 53 60 1.7 5.2 0.00 0.00 0.00 75 1011.6
20260507110531 53 297 0.0 7.8 0.00 0.00 0.00 76 1011.7
20260507110043 53 345 2.6 7.8 0.00 0.00 0.00 76 1011.7
20260507105531 53 61 0.9 3.5 0.00 0.00 0.00 76 1011.8
20260507105034 53 65 0.9 3.5 0.00 0.00 0.00 76 1011.9
20260507104543 52 79 0.9 4.3 0.00 0.00 0.00 76 1012.0
20260507104030 52 19 0.9 4.3 0.00 0.00 0.00 76 1011.9
20260507103532 52 347 1.7 3.5 0.00 0.00 0.00 76 1011.9
20260507103039 53 87 0.9 3.5 0.00 0.00 0.00 76 1011.8
20260507102531 52 78 0.9 4.3 0.00 0.00 0.00 77 1011.9
20260507102031 52 0 1.7 4.3 0.00 0.00 0.00 77 1011.9
20260507101542 52 281 1.7 4.3 0.00 0.00 0.00 77 1011.8
20260507101031 52 0 0.9 4.3 0.00 0.00 0.00 78 1011.9
20260507100530 52 214 0.9 4.3 0.00 0.00 0.00 78 1011.8
20260507100036 51 84 0.9 3.5 0.00 0.00 0.00 78 1011.8
20260507095532 51 32 0.9 7.8 0.00 0.00 0.00 78 1011.9
20260507095031 51 30 0.9 7.8 0.00 0.00 0.00 79 1011.8
20260507094544 51 120 0.9 7.8 0.00 0.00 0.00 79 1011.9
20260507094030 50 266 0.9 3.5 0.00 0.00 0.00 79 1011.8
20260507093531 50 45 0.9 6.1 0.00 0.00 0.00 79 1011.9
20260507093042 50 58 0.9 6.1 0.00 0.00 0.00 79 1011.9
20260507092531 49 53 0.9 3.5 0.00 0.00 0.00 80 1011.7
20260507092030 49 307 0.0 2.6 0.00 0.00 0.00 80 1011.8
20260507091545 49 86 0.0 3.5 0.00 0.00 0.00 80 1011.9
20260507091031 49 49 0.9 3.5 0.00 0.00 0.00 80 1011.9
20260507090533 49 52 0.9 2.6 0.00 0.00 0.00 80 1011.9
20260507090040 49 101 0.0 4.3 0.00 0.00 0.00 80 1012.0
20260507085531 49 339 0.0 4.3 0.00 0.00 0.00 80 1012.0
20260507085033 49 68 0.9 4.3 0.00 0.00 0.00 80 1012.0
20260507084539 49 32 0.0 2.6 0.00 0.00 0.00 80 1011.9
20260507084030 49 0 0.0 3.5 0.00 0.00 0.00 79 1011.8
20260507083530 49 289 0.9 3.5 0.00 0.00 0.00 78 1011.8
20260507083035 50 37 0.9 4.3 0.00 0.00 0.00 77 1011.9
20260507082531 50 103 1.7 6.1 0.00 0.00 0.00 76 1011.8
20260507082030 50 4 0.9 6.1 0.00 0.00 0.00 76 1011.8
20260507081543 50 11 0.9 5.2 0.00 0.00 0.00 76 1011.8
20260507081029 50 340 0.9 4.3 0.00 0.00 0.00 76 1011.7
20260507080530 50 328 0.9 4.3 0.00 0.00 0.00 76 1011.9
20260507080044 50 224 0.9 4.3 0.00 0.00 0.00 76 1011.8
20260507075531 50 0 0.9 4.3 0.00 0.00 0.00 76 1011.8
20260507075031 50 349 0.9 4.3 0.00 0.00 0.00 76 1011.8
20260507074538 50 94 0.9 4.3 0.00 0.00 0.00 76 1011.9
20260507074030 49 107 0.9 4.3 0.00 0.00 0.00 76 1011.8
20260507073530 49 25 0.9 6.1 0.00 0.00 0.00 76 1011.8
20260507073036 49 356 0.9 6.1 0.00 0.00 0.00 76 1011.8
20260507072531 49 160 0.9 4.3 0.00 0.00 0.00 76 1011.8
20260507072110 49 354 0.9 5.2 0.00 0.00 0.00 76 1011.9
20260507071535 49 345 0.9 5.2 0.00 0.00 0.00 76 1011.9
20260507071034 49 142 0.9 4.3 0.00 0.00 0.00 76 1012.0
20260507070531 49 290 0.9 4.3 0.00 0.00 0.00 76 1012.0
20260507070035 49 91 1.7 5.2 0.00 0.00 0.00 76 1011.8
20260507065532 48 56 0.9 5.2 0.00 0.00 0.00 76 1011.9
20260507065030 48 338 0.0 6.1 0.00 0.00 0.00 76 1011.9
20260507064541 48 270 0.9 6.1 0.00 0.00 0.00 76 1011.8
20260507064030 48 39 0.9 5.2 0.00 0.00 0.00 76 1011.9
20260507063529 48 26 0.9 5.2 0.00 0.00 0.00 76 1011.9
20260507063036 48 319 1.7 5.2 0.00 0.00 0.00 76 1011.9
20260507062531 48 241 1.7 3.5 0.00 0.00 0.00 76 1011.9
20260507062032 48 128 0.9 4.3 0.00 0.00 0.00 76 1011.9
20260507061537 48 4 0.9 4.3 0.00 0.00 0.00 76 1011.9
20260507061031 48 304 1.7 5.2 0.00 0.00 0.00 76 1011.9
20260507060530 47 32 1.7 5.2 0.00 0.00 0.00 76 1011.8
20260507060036 47 96 1.7 5.2 0.00 0.00 0.00 76 1012.0
20260507055530 47 0 0.0 3.5 0.00 0.00 0.00 77 1012.0
20260507055033 47 283 0.0 3.5 0.00 0.00 0.00 77 1011.9
20260507054538 46 75 0.9 3.5 0.00 0.00 0.00 77 1012.0
20260507054030 46 257 0.0 2.6 0.00 0.00 0.00 77 1012.0
20260507053530 46 51 0.0 2.6 0.00 0.00 0.00 77 1012.0
20260507053041 46 0 0.0 1.7 0.00 0.00 0.00 77 1011.9
20260507052532 46 0 0.0 1.7 0.00 0.00 0.00 77 1012.1
20260507052030 46 68 0.9 1.7 0.00 0.00 0.00 77 1012.2
20260507051537 45 75 0.0 1.7 0.00 0.00 0.00 77 1012.2
20260507051030 45 59 0.0 1.7 0.00 0.00 0.00 77 1012.1
20260507050529 45 72 0.0 2.6 0.00 0.00 0.00 77 1012.0
20260507050046 45 72 0.0 2.6 0.00 0.00 0.00 77 1012.0
20260507045531 45 67 0.9 1.7 0.00 0.00 0.00 76 1012.0
20260507045031 45 81 0.0 5.2 0.00 0.00 0.00 76 1012.0
20260507044536 45 101 0.9 5.2 0.00 0.00 0.00 76 1012.1
20260507044030 45 72 2.6 5.2 0.00 0.00 0.00 76 1012.0
20260507043531 45 65 1.7 2.6 0.00 0.00 0.00 76 1012.0
20260507043042 45 20 0.0 2.6 0.00 0.00 0.00 76 1012.1
20260507042532 45 72 0.9 2.6 0.00 0.00 0.00 76 1012.1
20260507042030 45 79 0.9 3.5 0.00 0.00 0.00 75 1012.1
20260507041543 45 74 1.7 5.2 0.00 0.00 0.00 75 1012.1
20260507041030 45 86 1.7 5.2 0.00 0.00 0.00 75 1012.0
20260507040529 45 74 0.9 2.6 0.00 0.00 0.00 75 1012.1
20260507040042 45 60 0.0 1.7 0.00 0.00 0.00 75 1012.1
20260507035529 45 0 0.0 1.7 0.00 0.00 0.00 75 1012.2
20260507035030 45 79 0.0 1.7 0.00 0.00 0.00 74 1012.3
20260507034548 45 0 0.9 1.7 0.00 0.00 0.00 74 1012.3
20260507034029 45 76 0.9 2.6 0.00 0.00 0.00 74 1012.3
20260507033531 46 70 0.9 5.2 0.00 0.00 0.00 74 1012.3
20260507033035 45 72 0.9 5.2 0.00 0.00 0.00 74 1012.3
20260507032531 45 68 0.0 1.7 0.00 0.00 0.00 74 1012.4
20260507032030 45 0 0.0 1.7 0.00 0.00 0.00 74 1012.4
20260507031543 45 102 0.0 0.9 0.00 0.00 0.00 74 1012.5
20260507031030 46 0 0.0 0.9 0.00 0.00 0.00 73 1012.6
20260507030531 46 0 0.0 2.6 0.00 0.00 0.00 73 1012.5
20260507030044 46 0 0.0 2.6 0.00 0.00 0.00 73 1012.5
20260507025530 46 91 0.9 2.6 0.00 0.00 0.00 73 1012.5
20260507025030 46 52 0.0 1.7 0.00 0.00 0.00 72 1012.4
20260507024538 46 64 0.0 1.7 0.00 0.00 0.00 72 1012.5
20260507024030 46 58 0.0 2.6 0.00 0.00 0.00 72 1012.5
20260507023530 46 86 0.0 2.6 0.00 0.00 0.00 71 1012.6
20260507023039 46 0 0.0 2.6 0.00 0.00 0.00 71 1012.6
20260507022530 46 81 0.9 2.6 0.00 0.00 0.00 71 1012.7
20260507022030 46 0 0.0 1.7 0.00 0.00 0.00 71 1012.8
20260507021535 46 0 0.0 1.7 0.00 0.00 0.00 71 1012.8
20260507021030 45 97 0.0 1.7 0.00 0.00 0.00 71 1012.8
20260507020530 45 0 0.0 1.7 0.00 0.00 0.00 71 1012.9
20260507020052 45 134 0.0 0.9 0.00 0.00 0.00 70 1012.8
20260507015530 46 0 0.0 0.9 0.00 0.00 0.00 70 1012.8
20260507015030 46 81 0.0 0.9 0.00 0.00 0.00 70 1012.8
20260507014541 46 81 0.0 1.7 0.00 0.00 0.00 71 1012.8
20260507014029 46 82 0.0 1.7 0.00 0.00 0.00 71 1012.9